{"data":{"norad_id":69031,"epoch":"2026-05-25T03:30:34.062912Z","epoch_age_seconds":65497,"freshness":"FRESH","line1":"1 69031U 26101G   26145.14622758  .00191328  00000+0  12523-2 0  9990","line2":"2 69031  97.2846 359.9003 0002083  70.5967 289.5523 15.75241679  3018","mean_motion":15.75241679,"eccentricity":0.0002083,"inclination_deg":97.2846,"raan_deg":359.9003,"arg_perigee_deg":70.5967,"mean_anomaly_deg":289.5523,"bstar":0.0012523,"rev_number":301,"period_min":91.414544142467,"perigee_km":342.54333429308,"apogee_km":345.34375304757,"semimajor_km":6722.0805436703,"source":"CELESTRAK","updated_at":"2026-05-25T13:38:22.080454Z"}}